Location: Bittkow
(50.3000°N, 19.0000°E)
Time: 01:35:26
(UTC+00:00)

Cosmos 1933 - Pass Details

Date: 19 September 2020
Orbit: 546 x 564 km, 82.5° (Epoch: 30 October)

Event Time Altitude Azimuth Distance (km) Brightness Sun altitude
Exits shadow 02:18:09 43° 296° (WNW) 805 3.8 -20.3°
Drops below altitude 10° 02:21:50 10° 358° (N) 1,865 6.3 -19.8°
Sets 02:24:06 0° 6° (N) 2,764 7.4 -19.5°
